MACSAT 1 (M 1)

Satellite information

Favourite Embed

Satellite Type and Status

PAYLOADIN ORBIT

Key statistics

Satellite MACSAT 1 (M 1) at a glance.

Uptime

12904

Days in orbit

Revolutions

≈ 14.7

Per day

Orbit

LEO

Low Earth Orbit

Inclination

89.7

Latest

Satellite identification and parameters

Extended collection of information and parameters for MACSAT 1 (M 1).

Object identification

Identified? True

Debris? False

Object name: MACSAT 1 (M 1)

International designator: 1990-043A

Object number (NORAD): 20607

Object ID (CCSDS): 20607

Country: UNITED STATES OF AMERICA (US)

Current information (Y/N): Y

RCS size: MEDIUM

Orbital parameters

Period: 97.649 minutes

Inclination: 89.7324 deg

SMA: 7024.323 km

Apoapsis: 707.701 km

Periapsis: 584.676 km

RAAN: 253.3456 deg

Eccentricy: 0.00875704

Argument of periapsis: 288.2942 deg

Mean anomaly: 70.8766 deg

Mean motion: 14.74674014 rev/day

Mean motion (dot): 0.00001081 rev/day2

B* drag term: 0.00015002837 1/REarth

Two-line elements (TLE)

Creation date: Sept. 6, 2025, 2:09 a.m.

Reference frame: TEME

Reference center: EARTH

Epoch: Sept. 5, 2025, 11:02 p.m. UTC

TLE line 0: 0 MACSAT 1 (M 1)

TLE line 1: 1 20607U 90043A 25248.96021267 .00001081 00000-0 15003-3 0 9997

TLE line 2: 2 20607 89.7324 253.3456 0087570 288.2942 70.8766 14.74674014872481

Live tracking on map

Real-time ground track for satellite MACSAT 1 (M 1).

In-orbit conjunctions

A list of the most updated potential collisions computed for object MACSAT 1 (M 1).

Target Orbit TCA Probability of collision Miss distance Type
CZ-4 DEB SSO 2025-01-19 16:24:19 0.0004592165 243.0 (m) DEBRIS
COSMOS 2251 DEB LEO 2024-09-15 08:25:55 0.0002471188 272.0 (m) DEBRIS

Associated space launch

Experimental communications satellites for the US military

MACSAT 1 (M 1) was lifted into orbit during the mission ‘Scout G-1 | MACSAT 1 & 2’, on board a Scout G-1 space rocket.

The launch took place on May 9, 1990, 5:50 p.m. from Space Launch Complex 5.

For more information about the launch, click the button.

Launch to space Scout G-1 | MACSAT 1 & 2
Scout G-1 | MACSAT 1 & 2

Agency: N/A

Status: Launch Successful

Launch date: May 9, 1990, 5:50 p.m. UTC

Rocket: Scout G-1

Launch pad: Space Launch Complex 5

Location: Vandenberg SFB, CA, USA

...

Latest news about this satellite

There are no fresh news available about this satellite. Check back as we update our databases every day.


Newsletter sign-up

Weekly statistics, charts and insights to help you stay on top of the space industry.